Location: Newark
(33.4453°N, 112.0669°W)
Time: 02:26:12
(UTC+00:00)

Hubble Space Telescope - Visible Passes

Search period start: 27 January 2020 00:00
Search period end: 06 February 2020 00:00
Orbit: 536 x 540 km, 28.5° (Epoch: 25 January)

Date Brightness Start Highest point End Pass type
(mag) Time Alt. Az. Time Alt. Az. Time Alt. Az.
28 Jan 3.1 13:53:39 10° SSW 13:56:49 21° SSE 13:59:59 10° ESE visible
29 Jan 2.7 13:42:43 10° SW 13:46:07 25° SSE 13:49:30 10° ESE visible
30 Jan 3.7 11:55:28 11° SE 11:55:28 11° SE 11:56:01 10° SE visible
30 Jan 2.5 13:31:52 10° SW 13:35:25 28° SSE 13:39:00 10° ESE visible
31 Jan 3.8 11:45:47 11° SE 11:45:47 11° SE 11:46:15 10° SE visible
31 Jan 2.2 13:21:08 10° SW 13:24:45 32° S 13:28:27 10° ESE visible
01 Feb 4.0 11:35:59 10° ESE 11:35:59 10° ESE 11:36:04 10° ESE visible
01 Feb 2.0 13:11:20 16° SW 13:14:05 35° S 13:17:51 10° ESE visible
02 Feb 1.8 13:01:28 23° SW 13:03:25 38° S 13:07:15 10° ESE visible
03 Feb 1.6 12:51:31 31° SW 12:52:46 40° S 12:56:38 10° ESE visible
04 Feb 1.5 12:41:33 39° SSW 12:42:06 41° S 12:46:00 10° ESE visible
05 Feb 1.5 12:31:32 41° S 12:31:32 41° S 12:35:20 10° ESE visible
